Regional Weather Roundup
Issued by NWS Upton, NY

Current Version | Previous Version | Graphics & Text | Print | Product List | Glossary Off
Versions: 1 2 3 4 5 6 7 8 9 10 11 12 13 14 15 16 17 18 19 20 21 22 23 24 25 26 27 28 29 30 31 32 33 34 35 36 37 38 39 40 41 42 43 44 45 46 47 48 49 50

000
ASUS41 KOKX 301405
RWROKX
REGIONAL WEATHER ROUNDUP
NATIONAL WEATHER SERVICE NEW YORK NY
1000 AM EDT WED JUL 30 2014

NOTE: "FAIR" INDICATES FEW OR NO CLOUDS BELOW 12,000 FEET WITH NO
SIGNIFICANT WEATHER AND/OR OBSTRUCTIONS TO VISIBILITY.

NYZ071-072-176-178-NJZ106-104-301500-
NEW YORK CITY METRO AREA


CITY           SKY/WX    TMP DP  RH WIND       PRES   REMARKS
CENTRAL PARK   SUNNY     70  52  52 CALM      30.06S
LAGUARDIA APRT MOSUNNY   72  53  51 E8        30.03S
KENNEDY INTL   MOSUNNY   74  52  46 VRB3      30.04S
NEWARK/LIBERTY SUNNY     74  52  46 N7        30.03F
BRNX BOT. GARD   N/A     72  52  49 N5        30.06R
TETERBORO      SUNNY     74  53  48 N5        30.02F
$$

NYZ177-179-078>081-301500-
LONG ISLAND NEW YORK

CITY           SKY/WX    TMP DP  RH WIND       PRES   REMARKS
FARMINGDALE    SUNNY     71  54  54 W5        30.03S
ISLIP          MOSUNNY   76  54  46 VRB5      30.01S
SHIRLEY        SUNNY     75  56  51 W5        30.03S
WESTHAMPTON    SUNNY     74  55  51 VRB3      30.04R
MONTAUK POINT    N/A     71  57  61 CALM      30.03S
$$

NYZ052-065-067-301500-
HUDSON VALLEY

CITY           SKY/WX    TMP DP  RH WIND       PRES   REMARKS
WHITE PLAINS   SUNNY     70  53  54 N5        30.03F
NEWBURGH       MOSUNNY   68  57  68 CALM      30.06S
MONTGOMERY     SUNNY     69  55  60 CALM      30.04F
POUGHKEEPSIE   CLOUDY    68  59  73 CALM      30.04S
ALBANY         PTSUNNY   67  55  65 CALM      30.04F
$$

NJZ001-105-106-008-010-013-015-019>022-104-301500-
NEW JERSEY

CITY           SKY/WX    TMP DP  RH WIND       PRES   REMARKS
NEWARK/LIBERTY SUNNY     74  52  46 N7        30.03F
TETERBORO      SUNNY     74  53  48 N5        30.02F
CALDWELL       SUNNY     70  54  56 VRB5      30.05S
MORRISTOWN     MOSUNNY   72  55  56 CALM      30.05S
SOMERVILLE     SUNNY     70  57  63 CALM      30.04R
LINDEN         FAIR      73  55  52 N6        30.06S
SUSSEX         SUNNY     70  56  61 E3        30.05F
ANDOVER          N/A     67  57  70 CALM      30.06S
TRENTON        SUNNY     71  53  52 N6        30.05S
MILLVILLE      SUNNY     71  54  54 CALM      30.06S
ATLANTIC CITY  SUNNY     73  54  51 N8        30.05R
WRIGHTSTOWN    SUNNY     72  56  56 N6        30.03S
TOMS RIVER     SUNNY     72  52  49 N5        30.05S
BELMAR         SUNNY     72  54  53 NW6       30.04S
$$

PAZ047>061-062-071-301500-
EASTERN PENNSYLVANIA

CITY           SKY/WX    TMP DP  RH WIND       PRES   REMARKS
PHILADELPHIA   SUNNY     73  52  47 CALM      30.06S
ALLENTOWN      SUNNY     67  54  63 CALM      30.06S
SCRANTON       SUNNY     65  53  65 VRB3      30.06S
$$

CTZ002-004>006-009-010-012-RIZ004-006-007-MAZ004-011-015-301500-
SOUTHERN NEW ENGLAND
 IN CT

CITY           SKY/WX    TMP DP  RH WIND       PRES   REMARKS
BRADLEY INTL   PTSUNNY   70  55  59 VRB3      30.02S
HARTFORD       SUNNY     71  56  58 CALM      30.02S
DANBURY        SUNNY     69  54  58 CALM      30.05S
WTRBRY/OXFORD  MOSUNNY   66  55  68 VRB5      30.06S
BRIDGEPORT     SUNNY     73  54  51 CALM      30.03R
MERIDEN        SUNNY     72  54  53 CALM      30.02F
NEW HAVEN      MOSUNNY   73  55  53 VRB3      30.02S
CHESTER        FAIR      72  54  53 W3        30.03S
GROTON         SUNNY     71  61  70 S8        30.00S
WILLIMANTIC    SUNNY     70  58  65 VRB5      30.02S

 IN RI

CITY           SKY/WX    TMP DP  RH WIND       PRES   REMARKS
PROVIDENCE     MOSUNNY   74  53  48 VRB5      30.01S
BLOCK ISLAND   CLOUDY    70  55  60 CALM      30.02S
WESTERLY       SUNNY     74  53  48 VRB3      30.02S

 IN MA

CITY           SKY/WX    TMP DP  RH WIND       PRES   REMARKS
BOSTON         MOSUNNY   70  58  65 SE5       30.00S
WORCESTER      SUNNY     68  54  60 SW7       30.03S
WESTFIELD      CLOUDY    66  56  70 CALM      30.03S
PROVINCETOWN   SUNNY     73  57  56 W6        30.01S
NANTUCKET      SUNNY     70  63  78 SW7       30.01S
$$

ANZ330-335-338-340-345-350-353-355-301500-
COASTAL MARINE OBSERVATIONS


STATION/POSITION TIME  SKY/WX   TEMP    WIND        PRES    VSBY  WAVE
                                AIR SEA DIR/SP/G                  HT/PER
                 (UTC)          (F)     (DEG/KT/KT) (MB)    (MI)  (FT/S)
NY HARB ENTRANCE NOT AVBL
4S FIRE IS       NOT AVBL
23SW MTP         1400            72 70              1016.0          3/ 7
HUDSON CANYON    1400            73 75  200/  2/  2 1016.4          3/ 8
EXECUTION ROCKS  1400            72 70  150/  4/  4   N/A
WESTERN LI SOUND 1400            67     210/  2/  4   N/A           0
CENTRAL LI SOUND 1300            67 72  320/  2/  4   N/A           0
EASTERN LI SOUND 1300            69 68   CALM  /  2   N/A
ROBBINS REEF     1400            68      10/  4/  5   N/A
$$


>>>>>>>>>>>>>>>>>>>>>>>>>>>> KEY <<<<<<<<<<<<<<<<<<<<<<<<<<<
>                                                          <
>     SKY/WX - SKY CONDITION/PRESENT WEATHER               <
>     TMP    - TEMPERATURE IN FAHRENHEIT                   <
>     DP     - DEWPOINT IN FAHRENHEIT                      <
>     RH     - RELATIVE HUMIDITY IN PERCENT                <
>     WIND   - DIRECTION AND SPEED IN MPH                  <
>     PRES   - MEAN SEA LEVEL PRESSURE IN INCHES OF HG     <
>     WCI    - WIND CHILL INDEX                            <
>     VSB    - VISIBILITY IN MILES                         <
>     HX     - HEAT INDEX                                  <
>     TC     - TEMPERATURE IN CELSIUS                      <
>     VRB    - VARIABLE WIND DIRECTION                     <
>                                                          <
>>>>>>>>>>>>>>>>>>>>>>>>>>>> KEY <<<<<<<<<<<<<<<<<<<<<<<<<<<





USA.gov is the U.S. government's official web portal to all federal, state and local government web resources and services.